Date String (YYYY-MM-DD hh:mm:ss) UTC,Instrument flags,Ambient pressure (hPa),Sample flow (lpm),Bypass flow (lpm),Sample temperature (°C),Ambient temperature (°C),ASC tube jacket temperature (°C),LED temperature (°C),Box temperature (°C),Sample RH (%),Span deviation,Mass concentration (μg/m³),Mass concentration (μg/m³),Mass concentration (μg/m³)
DateTimeUTC,F1_M11,P_M11,Q1_M11,Q2_M11,T1_M11,T2_M11,T3_M11,T4_M11,T5_M11,U1_M11,ZSPAN_M11,X0_M11,X2_M11,X1_M11
2021-09-04 22:00:00,,0828.4,5.01,0.00,29.5,28.4,00.0,38.3,31.4,20.5,0001.1,0022.88,0015.60,0014.78
2021-09-04 22:01:00,,0828.3,4.99,0.00,29.4,27.1,00.0,38.3,31.0,20.5,0001.1,0022.81,0015.60,0014.81
2021-09-04 22:02:00,,0828.4,5.01,0.00,29.3,25.8,00.0,38.3,30.7,20.4,0001.3,0022.68,0015.54,0014.78
2021-09-04 22:03:00,,0828.4,5.00,0.00,29.2,26.0,00.0,38.3,30.7,20.6,0001.1,0022.69,0015.50,0014.77
2021-09-04 22:04:00,,0828.4,5.00,0.00,29.2,26.4,00.0,38.3,30.8,20.8,0001.1,0023.27,0015.55,0014.77
2021-09-04 22:05:00,,0828.5,4.99,0.00,29.2,26.9,00.0,38.3,30.9,20.9,0001.2,0023.26,0015.57,0014.78
2021-09-04 22:06:00,,0828.5,4.99,0.00,29.2,27.4,00.0,38.3,31.0,20.6,0001.4,0022.74,0015.54,0014.78
2021-09-04 22:07:00,,0828.5,4.99,0.00,29.2,27.7,00.0,38.3,31.1,20.6,0001.4,0022.94,0015.55,0014.79
2021-09-04 22:08:00,,0828.4,5.00,0.00,29.3,28.0,00.0,38.3,31.2,20.7,0001.4,0022.27,0015.59,0014.81
2021-09-04 22:09:00,,0828.4,5.01,0.00,29.3,28.3,00.0,38.3,31.3,20.8,0001.2,0022.29,0015.66,0014.83
2021-09-04 22:10:00,,0828.5,5.00,0.00,29.4,28.5,00.0,38.3,31.3,21.0,0001.4,0022.38,0015.71,0014.83
2021-09-04 22:11:00,,0828.5,5.00,0.00,29.5,28.2,00.0,38.3,31.2,21.1,0001.4,0022.74,0015.70,0014.84
2021-09-04 22:12:00,,0828.5,5.00,0.00,29.3,26.4,00.0,38.3,30.7,21.0,0001.4,0022.76,0015.71,0014.83
2021-09-04 22:13:00,,0828.4,5.01,0.00,29.2,25.6,00.0,38.3,30.5,20.9,0001.2,0023.35,0015.74,0014.85
2021-09-04 22:14:00,,0828.4,4.99,0.00,29.1,26.1,00.0,38.3,30.6,20.9,0001.3,0023.48,0015.74,0014.87
2021-09-04 22:15:00,,0828.4,4.99,0.00,29.1,26.5,00.0,38.2,30.7,21.3,0001.4,0022.84,0015.66,0014.86
2021-09-04 22:16:00,,0828.4,5.00,0.00,29.1,27.0,00.0,38.2,30.8,21.0,0001.3,0022.93,0015.66,0014.85
2021-09-04 22:17:00,,0828.4,5.00,0.00,29.2,27.4,00.0,38.2,30.9,21.0,0001.4,0022.85,0015.67,0014.83
2021-09-04 22:18:00,,0828.4,5.01,0.00,29.2,27.8,00.0,38.2,31.1,20.9,0001.5,0022.71,0015.66,0014.82
2021-09-04 22:19:00,,0828.4,5.00,0.00,29.3,28.1,00.0,38.2,31.2,20.7,0001.4,0022.49,0015.61,0014.80
2021-09-04 22:20:00,,0828.4,5.01,0.00,29.3,28.3,00.0,38.3,31.3,20.8,0001.4,0021.75,0015.49,0014.75
2021-09-04 22:21:00,,0828.4,4.99,0.00,29.4,28.5,00.0,38.3,31.3,20.8,0001.1,0021.41,0015.42,0014.74
2021-09-04 22:22:00,,0828.4,5.00,0.00,29.4,27.6,00.0,38.3,31.1,20.9,0001.2,0021.55,0015.43,0014.75
2021-09-04 22:23:00,,0828.4,5.01,0.00,29.2,25.9,00.0,38.3,30.5,20.9,0001.2,0022.20,0015.48,0014.75
2021-09-04 22:24:00,,0828.4,5.00,0.00,29.1,25.8,00.0,38.2,30.5,20.8,0001.3,0022.20,0015.53,0014.75
2021-09-04 22:25:00,,0828.4,4.99,0.00,29.1,26.2,00.0,38.2,30.7,20.8,0001.3,0021.65,0015.52,0014.73
2021-09-04 22:26:00,,0828.4,5.01,0.00,29.1,26.7,00.0,38.2,30.7,21.2,0001.4,0022.29,0015.56,0014.72
2021-09-04 22:27:00,,0828.3,4.99,0.00,29.1,27.2,00.0,38.2,30.9,21.1,0001.3,0022.48,0015.61,0014.73
2021-09-04 22:28:00,,0828.3,5.00,0.00,29.2,27.6,00.0,38.2,31.0,21.1,0001.3,0022.61,0015.65,0014.74
2021-09-04 22:29:00,,0828.4,5.00,0.00,29.2,27.9,00.0,38.2,31.1,20.9,0001.2,0023.02,0015.65,0014.75
2021-09-04 22:30:00,,0828.3,5.01,0.00,29.3,28.2,00.0,38.2,31.2,21.1,0001.4,0023.24,0015.64,0014.74
2021-09-04 22:31:00,,0828.3,4.99,0.00,29.3,28.4,00.0,38.2,31.3,20.9,0001.6,0023.58,0015.67,0014.75
2021-09-04 22:32:00,,0828.3,5.00,0.00,29.4,28.5,00.0,38.3,31.3,20.9,0001.7,0023.85,0015.68,0014.76
2021-09-04 22:33:00,,0828.3,4.99,0.00,29.3,27.0,00.0,38.3,30.9,21.0,0001.5,0024.08,0015.68,0014.76
2021-09-04 22:34:00,,0828.3,5.02,0.00,29.2,25.6,00.0,38.2,30.5,21.3,0001.3,0023.59,0015.60,0014.75
2021-09-04 22:35:00,,0828.3,4.99,0.00,29.1,25.9,00.0,38.2,30.6,21.3,0001.3,0023.17,0015.58,0014.74
2021-09-04 22:36:00,,0828.2,4.99,0.00,29.1,26.4,00.0,38.2,30.7,21.6,0001.3,0023.07,0015.61,0014.75
2021-09-04 22:37:00,,0828.2,5.01,0.00,29.1,26.8,00.0,38.2,30.8,21.4,0001.2,0022.62,0015.64,0014.78
2021-09-04 22:38:00,,0828.2,5.00,0.00,29.1,27.3,00.0,38.2,30.9,21.1,0001.3,0022.39,0015.60,0014.79
2021-09-04 22:39:00,,0828.2,5.00,0.00,29.2,27.7,00.0,38.2,31.0,21.3,0001.1,0022.27,0015.54,0014.79
2021-09-04 22:40:00,,0828.3,4.98,0.00,29.2,28.0,00.0,38.2,31.1,21.0,0001.0,0022.33,0015.54,0014.82
2021-09-04 22:41:00,,0828.2,4.99,0.00,29.3,28.3,00.0,38.2,31.2,20.9,0001.0,0022.54,0015.55,0014.82
2021-09-04 22:42:00,,0828.2,5.01,0.00,29.3,28.5,00.0,38.2,31.3,21.0,0000.8,0023.28,0015.57,0014.80
2021-09-04 22:43:00,,0828.4,5.00,0.00,29.4,28.6,00.0,38.3,31.4,21.2,0000.8,0023.20,0015.60,0014.78
2021-09-04 22:44:00,,0828.3,5.01,0.00,29.4,27.5,00.0,38.3,31.0,21.1,0000.8,0022.27,0015.57,0014.77
2021-09-04 22:45:00,,0828.2,5.00,0.00,29.3,26.0,00.0,38.2,30.6,21.4,0001.1,0022.42,0015.58,0014.77
2021-09-04 22:46:00,,0828.3,4.99,0.00,29.2,26.0,00.0,38.2,30.6,21.6,0001.3,0022.25,0015.56,0014.76
2021-09-04 22:47:00,,0828.2,5.01,0.00,29.1,26.4,00.0,38.2,30.7,21.6,0001.3,0023.30,0015.53,0014.75
2021-09-04 22:48:00,,0828.2,4.98,0.00,29.1,26.8,00.0,38.2,30.8,21.3,0001.4,0023.42,0015.47,0014.73
2021-09-04 22:49:00,,0828.2,5.00,0.00,29.1,27.3,00.0,38.2,30.9,21.6,0001.3,0023.76,0015.46,0014.70
2021-09-04 22:50:00,,0828.2,5.01,0.00,29.2,27.6,00.0,38.2,31.0,21.2,0001.3,0024.30,0015.44,0014.68
2021-09-04 22:51:00,,0828.3,5.00,0.00,29.2,28.0,00.0,38.2,31.1,21.0,0001.6,0024.83,0015.40,0014.64
2021-09-04 22:52:00,,0828.3,5.00,0.00,29.3,28.2,00.0,38.2,31.2,20.8,0001.5,0024.43,0015.38,0014.63
2021-09-04 22:53:00,,0828.2,4.99,0.00,29.3,28.4,00.0,38.2,31.3,20.8,0001.7,0024.67,0015.40,0014.65
2021-09-04 22:54:00,,0828.2,5.00,0.00,29.4,28.4,00.0,38.3,31.3,21.0,0001.7,0025.73,0015.44,0014.67
2021-09-04 22:55:00,,0828.3,5.00,0.00,29.3,26.8,00.0,38.3,30.9,20.7,0001.6,0026.53,0015.49,0014.66
2021-09-04 22:56:00,,0828.4,5.00,0.00,29.2,25.7,00.0,38.2,30.5,20.7,0001.5,0026.55,0015.51,0014.66
2021-09-04 22:57:00,,0828.2,5.00,0.00,29.1,26.0,00.0,38.2,30.6,20.9,0001.3,0027.21,0015.54,0014.67
2021-09-04 22:58:00,,0828.2,5.01,0.00,29.1,26.4,00.0,38.2,30.7,21.1,0001.2,0026.40,0015.57,0014.68
2021-09-04 22:59:00,,0828.2,4.99,0.00,29.1,26.9,00.0,38.2,30.8,21.3,0001.0,0026.49,0015.62,0014.69
